TimeEDT,TemperatureF,Dew PointF,Humidity,Sea Level PressureIn,VisibilityMPH,Wind Direction,Wind SpeedMPH,Gust SpeedMPH,PrecipitationIn,Events,Conditions,WindDirDegrees,DateUTC
12:08 AM,66.2,64.4,94,30.04,1.8,Calm,Calm,-,N/A,,Mostly Cloudy,0,2013-09-20 04:08:00
12:18 AM,66.2,64.4,94,30.04,2.5,SSE,4.6,-,N/A,,Scattered Clouds,160,2013-09-20 04:18:00
12:27 AM,66.2,64.4,94,30.04,3.0,SSE,4.6,-,N/A,,Partly Cloudy,150,2013-09-20 04:27:00
12:53 AM,66.0,64.9,96,30.02,4.0,South,3.5,-,N/A,,Clear,180,2013-09-20 04:53:00
1:13 AM,64.4,64.4,100,30.03,2.5,Calm,Calm,-,N/A,,Partly Cloudy,0,2013-09-20 05:13:00
1:20 AM,64.4,64.4,100,30.03,2.0,Calm,Calm,-,N/A,,Partly Cloudy,0,2013-09-20 05:20:00
1:49 AM,66.2,64.4,94,30.03,3.0,Calm,Calm,-,N/A,,Scattered Clouds,0,2013-09-20 05:49:00
1:53 AM,64.9,64.0,97,30.02,2.5,Calm,Calm,-,N/A,,Mostly Cloudy,0,2013-09-20 05:53:00
2:28 AM,64.4,64.4,100,30.03,1.8,South,3.5,-,N/A,,Partly Cloudy,170,2013-09-20 06:28:00
2:53 AM,66.0,64.9,96,30.01,2.0,SE,3.5,-,N/A,,Mostly Cloudy,130,2013-09-20 06:53:00
3:12 AM,66.2,64.4,94,30.02,2.5,Calm,Calm,-,N/A,,Partly Cloudy,0,2013-09-20 07:12:00
3:30 AM,64.4,64.4,100,30.01,2.0,South,3.5,-,N/A,,Partly Cloudy,170,2013-09-20 07:30:00
3:37 AM,64.4,62.6,94,30.01,1.5,SSE,4.6,-,N/A,,Partly Cloudy,160,2013-09-20 07:37:00
3:46 AM,66.2,64.4,94,30.01,2.5,SSE,4.6,-,N/A,,Partly Cloudy,150,2013-09-20 07:46:00
3:53 AM,66.0,64.9,96,30.00,2.5,SSE,3.5,-,N/A,,Partly Cloudy,150,2013-09-20 07:53:00
4:26 AM,66.2,64.4,94,30.00,2.0,SSE,4.6,-,N/A,,Clear,150,2013-09-20 08:26:00
4:35 AM,66.2,64.4,94,30.00,1.8,SE,3.5,-,0.01,,Partly Cloudy,140,2013-09-20 08:35:00
4:45 AM,66.2,64.4,94,29.99,1.2,SSE,4.6,-,0.01,,Mostly Cloudy,150,2013-09-20 08:45:00
4:50 AM,66.2,64.4,94,29.99,0.8,SSE,5.8,-,0.01,,Mist,150,2013-09-20 08:50:00
4:53 AM,66.0,64.9,96,29.98,0.5,SSE,5.8,-,0.01,Fog,Fog,150,2013-09-20 08:53:00
5:35 AM,64.4,64.4,100,29.99,0.5,SSE,3.5,-,N/A,Fog,Fog,150,2013-09-20 09:35:00
5:51 AM,64.4,64.4,100,29.99,0.8,SSE,3.5,-,N/A,,Mist,150,2013-09-20 09:51:00
5:53 AM,64.9,64.0,97,29.97,1.0,SE,3.5,-,N/A,,Mist,140,2013-09-20 09:53:00
6:08 AM,64.4,64.4,100,29.99,1.8,SSE,3.5,-,N/A,,Clear,160,2013-09-20 10:08:00
6:33 AM,66.2,64.4,94,29.98,2.0,SE,4.6,-,N/A,,Clear,140,2013-09-20 10:33:00
6:43 AM,66.2,64.4,94,29.98,2.5,SE,3.5,-,N/A,,Clear,140,2013-09-20 10:43:00
6:53 AM,66.9,64.9,93,29.97,3.0,SSE,3.5,-,N/A,,Clear,150,2013-09-20 10:53:00
7:18 AM,66.2,66.2,100,29.99,2.0,SSE,4.6,-,N/A,,Clear,150,2013-09-20 11:18:00
7:32 AM,66.2,66.2,100,30.00,1.8,SSE,3.5,-,N/A,,Clear,160,2013-09-20 11:32:00
7:53 AM,66.9,66.0,97,29.99,1.8,SSE,5.8,-,N/A,,Clear,150,2013-09-20 11:53:00
8:07 AM,68.0,66.2,94,30.00,2.0,SSE,4.6,-,N/A,,Clear,150,2013-09-20 12:07:00
8:15 AM,68.0,66.2,94,30.00,2.5,SSE,3.5,-,N/A,,Clear,160,2013-09-20 12:15:00
8:33 AM,69.8,66.2,88,30.00,3.0,SSE,3.5,-,N/A,,Clear,150,2013-09-20 12:33:00
8:53 AM,70.0,68.0,93,29.99,4.0,SSE,3.5,-,N/A,,Scattered Clouds,150,2013-09-20 12:53:00
9:53 AM,73.9,68.0,82,29.97,8.0,SSW,4.6,-,N/A,,Clear,210,2013-09-20 13:53:00
10:53 AM,77.0,68.0,74,29.96,10.0,SSW,8.1,-,N/A,,Clear,210,2013-09-20 14:53:00
11:53 AM,80.1,68.0,67,29.95,10.0,SW,12.7,16.1,N/A,,Clear,220,2013-09-20 15:53:00
12:53 PM,82.0,68.0,62,29.93,10.0,SW,6.9,-,N/A,,Partly Cloudy,230,2013-09-20 16:53:00
1:53 PM,84.0,66.9,56,29.90,10.0,South,12.7,18.4,N/A,,Partly Cloudy,180,2013-09-20 17:53:00
2:53 PM,84.9,66.9,55,29.87,10.0,South,12.7,-,N/A,,Partly Cloudy,190,2013-09-20 18:53:00
3:53 PM,84.0,68.0,58,29.85,10.0,South,13.8,-,N/A,,Scattered Clouds,170,2013-09-20 19:53:00
4:53 PM,82.9,68.0,60,29.83,10.0,South,12.7,18.4,N/A,,Mostly Cloudy,170,2013-09-20 20:53:00
5:53 PM,82.9,68.0,60,29.82,10.0,South,10.4,19.6,N/A,,Clear,170,2013-09-20 21:53:00
6:53 PM,79.0,68.0,69,29.83,10.0,SSE,10.4,-,N/A,,Clear,160,2013-09-20 22:53:00
7:53 PM,75.9,68.0,76,29.83,10.0,SSE,6.9,-,N/A,,Clear,160,2013-09-20 23:53:00
8:53 PM,75.9,66.9,74,29.83,10.0,South,8.1,-,N/A,,Clear,190,2013-09-21 00:53:00
9:53 PM,73.9,66.9,79,29.83,10.0,WNW,8.1,-,N/A,,Mostly Cloudy,290,2013-09-21 01:53:00
10:53 PM,71.1,66.0,84,29.83,10.0,Calm,Calm,-,N/A,,Partly Cloudy,0,2013-09-21 02:53:00
11:53 PM,66.9,64.9,93,29.81,9.0,Calm,Calm,-,N/A,,Mostly Cloudy,0,2013-09-21 03:53:00